Flight Track Log - Related Links

Times and Time Zones

All times are in EDT time to prevent confusion due to time zone crossing. See the EJA831 flight status page for this flight to view local times or setup timezone preferences in your user account.

Time Position Orientation Groundspeed Altitude Reporting Facility
EDT Latitude Longitude Course Direction KTS MPH feet Rate Location/Type
Mon 09:27:13 PM 37.8217 -117.1825 214° Southwest 292 336 15,900  Level Los Angeles Center
Mon 09:28:15 PM 37.7322 -117.2058 192° South 314 361 17,000 532 Climbing Los Angeles Center
Mon 09:29:17 PM 37.6097 -117.2361 191° South 351 404 17,000  Level Los Angeles Center
Mon 09:30:00 PM 37.6557 -116.6807 132° Southeast  Level Estimated
Mon 09:30:19 PM 37.5092 -117.2614 191° South 363 418 17,000  Level Los Angeles Center
Mon 09:31:00 PM 37.5723 -116.6541 166° South  Level FlightAware Approximate
Mon 09:31:20 PM 37.4103 -117.2839 190° South 363 418 17,000  Level Los Angeles Center
Mon 09:32:22 PM 37.3167 -117.2431 161° South 376 433 17,000  Level Los Angeles Center
Mon 09:33:24 PM 37.2328 -117.1617 142° Southeast 381 438 17,000  Level Los Angeles Center
Mon 09:34:25 PM 37.1492 -117.0831 143° Southeast 379 436 17,000  Level Los Angeles Center
Mon 09:35:27 PM 37.0647 -117.0031 143° Southeast 379 436 17,000  Level Los Angeles Center
Mon 09:36:29 PM 36.9636 -116.9067 143° Southeast 380 437 17,000  Level Los Angeles Center
Mon 09:37:30 PM 36.8767 -116.8217 142° Southeast 390 449 17,000 -98 Level Los Angeles Center
Mon 09:38:32 PM 36.7917 -116.7375 142° Southeast 390 449 16,800 -97 Descending Los Angeles Center
Mon 09:39:34 PM 36.7222 -116.6344 130° Southeast 391 450 16,800  Level Los Angeles Center
Mon 09:40:35 PM 36.6514 -116.5344 131° Southeast 385 443 16,800  Level Los Angeles Center
Mon 09:41:37 PM 36.5808 -116.4336 131° Southeast 386 444 16,800  Level Los Angeles Center
Mon 09:42:38 PM 36.5075 -116.3294 131° Southeast 386 444 16,800  Level Los Angeles Center
Mon 09:43:40 PM 36.4361 -116.2283 131° Southeast 387 445 16,800  Level Los Angeles Center
Mon 09:44:42 PM 36.3525 -116.1144 132° Southeast 386 444 16,800  Level Los Angeles Center
Mon 09:45:06 PM 36.3250 -116.0747 131° Southeast 400 460 16,800  Level Los Angeles Center
Mon 09:45:55 PM 36.2664 -115.9897 131° Southeast 386 444 16,800 -303 Level Los Angeles Center
Mon 09:46:45 PM 36.2117 -115.9150 132° Southeast 348 400 16,300 -655 Descending Los Angeles Center
Mon 09:46:50 PM 36.2081 -115.9072 120° Southeast 348 400 16,200 -1,065 Descending Los Angeles Center
Mon 09:47:47 PM 36.1725 -115.8108 115° Southeast 337 388 15,200 -1,082 Descending Los Angeles Center
Mon 09:47:51 PM 36.1683 -115.8003 116° Southeast 338 389 15,100 -1,082 Descending Los Angeles Center
Mon 09:48:48 PM 36.1375 -115.7022 111° Southeast 341 392 14,100 -1,082 Descending Los Angeles Center
Mon 09:48:52 PM 36.1344 -115.6917 110° East 341 392 14,000 -1,065 Descending Los Angeles Center
Mon 09:49:50 PM 36.0992 -115.5872 113° Southeast 338 389 13,000 -1,000 Descending Los Angeles Center
Mon 09:49:52 PM 36.0992 -115.5861 90° East 328 377 13,000 -871 Level Los Angeles Center
Mon 09:50:52 PM 36.0678 -115.4889 112° Southeast 318 366 12,100 -985 Descending Los Angeles Center
Mon 09:50:59 PM 36.0619 -115.4733 115° Southeast 306 352 11,900 -871 Descending Los Angeles Center
Mon 09:51:54 PM 36.0383 -115.3969 111° Southeast 304 350 11,200 -787 Descending Los Angeles Center
Mon 09:52:00 PM 36.0336 -115.3814 111° Southeast 285 328 11,100 -984 Descending Los Angeles Center
Mon 09:52:55 PM 36.0264 -115.3047 97° East 288 331 10,200 -1,026 Descending Los Angeles Center
Mon 09:53:57 PM 36.0194 -115.2103 95° East 280 322 9,100 -942 Descending Los Angeles Center
Mon 09:54:56 PM 36.0125 -115.1147 95° East 235 270 8,300 -774 Descending Los Angeles Center
Mon 09:54:59 PM 36.0133 -115.1197 282° West 274 315 8,300 -563 Level Los Angeles Center
Mon 09:56:00 PM 36.0242 -115.0569 78° East 237 273 7,700 -938 Descending Los Angeles Center
Mon 09:56:03 PM 36.0381 -115.0531 13° North 209 241 7,300 -1,355 Descending Los Angeles Center
Mon 09:57:02 PM 36.0894 -115.0228 25° Northeast 218 251 6,300 -1,082 Descending Los Angeles Center
Mon 09:57:04 PM 36.0944 -115.0239 350° North 220 253 6,200 -1,474 Descending Los Angeles Center
Mon 09:57:59 PM 36.1436 -115.0419 343° North 218 251 4,900 -1,119 Descending Los Angeles Center
Mon 09:58:03 PM 36.1347 -115.0317 137° Southeast 238 274 5,100 -1,182 Climbing Los Angeles Center
Mon 09:59:05 PM 36.1514 -115.1047 286° West 200 230 3,600 -1,500 Descending Los Angeles Center
Mon 09:59:11 PM 36.1489 -115.1150 253° West 177 204 3,400 -968 Descending Los Angeles Center
Mon 10:00:07 PM 36.1211 -115.1408 217° Southwest 167 192 2,600 -885 Descending Los Angeles Center
Mon 10:00:12 PM 36.1164 -115.1442 210° Southwest 140 161 2,500 -590 Descending Los Angeles Center
Mon 10:01:08 PM 36.0903 -115.1575 202° Southwest 145 167 2,000 -536 Descending Los Angeles Center
Mon 10:03:00 PM 36.0801 -115.1523 180° South  Level Estimated

Login

Don't have an account? Register now (free) for customized features, flight alerts, and more!